Date,TemperatureHighF,TemperatureAvgF,TemperatureLowF,DewpointHighF,DewpointAvgF,DewpointLowF,HumidityHigh,HumidityAvg,HumidityLow,PressureMaxIn,PressureMinIn,WindSpeedMaxMPH,WindSpeedAvgMPH,GustSpeedMaxMPH,PrecipitationSumIn
2013-1-1,47.8,44.2,41.1,47.0,42.9,38.1,97,95,89,30.18,30.04,6,0,6,0.86
2013-1-2,42.5,39.3,37.5,41.4,36.4,34.5,96,90,82,30.28,30.09,7,1,7,0.01
2013-1-3,45.6,36.9,28.5,34.8,31.3,26.0,92,81,56,30.48,30.24,9,1,9,0.00
2013-1-4,48.0,34.0,25.2,32.0,26.8,23.4,93,77,44,30.56,30.43,9,1,9,0.00
2013-1-5,49.9,36.9,25.3,38.9,30.2,23.6,95,79,46,30.52,30.33,9,0,9,0.04
2013-1-6,50.3,41.6,35.1,41.3,38.1,31.0,96,88,67,30.40,30.22,6,0,6,0.05
2013-1-7,50.7,35.8,26.5,36.0,30.3,25.0,94,82,52,30.51,30.38,13,1,13,0.00
2013-1-8,56.7,39.8,28.4,43.8,35.6,26.9,96,86,58,30.51,30.36,4,0,4,0.00
2013-1-9,54.3,49.7,44.7,52.9,48.3,42.5,97,95,91,30.50,30.38,7,0,7,0.10
2013-1-10,59.0,53.2,49.6,56.7,51.6,48.8,97,94,86,30.49,30.16,10,1,10,0.02
2013-1-11,66.6,62.2,59.0,64.7,60.7,56.4,98,95,88,30.18,30.09,13,0,13,0.56
2013-1-12,69.8,63.4,59.7,67.7,62.4,58.3,99,96,89,30.15,30.02,3,0,3,0.04
2013-1-13,64.8,60.8,50.2,64.2,59.8,48.3,98,96,94,30.12,29.97,7,0,7,1.43
2013-1-14,50.0,42.4,37.7,48.6,41.4,36.7,97,96,95,30.35,30.11,13,1,13,1.49
2013-1-15,43.6,41.4,38.7,43.1,40.7,37.8,98,97,97,30.25,30.05,11,1,11,1.68
2013-1-16,47.9,44.3,40.8,47.3,43.7,39.8,98,98,96,30.14,29.99,6,0,6,0.13
2013-1-17,43.2,39.6,34.5,42.4,37.0,28.8,97,90,78,30.44,29.85,27,3,27,0.23
2013-1-18,49.0,35.8,27.8,37.4,30.7,24.2,96,83,44,30.65,30.44,9,1,9,0.00
2013-1-19,55.5,38.9,27.0,39.8,32.8,25.8,97,81,48,30.54,30.28,5,0,5,0.00
2013-1-20,59.9,42.8,32.2,44.3,36.0,30.8,96,79,51,30.31,30.18,6,0,6,0.00
2013-1-21,50.2,36.6,28.4,36.0,26.2,19.9,96,70,34,30.34,30.19,13,1,13,0.00
2013-1-22,40.1,31.1,23.7,20.8,14.8,10.3,75,52,33,30.50,30.33,12,1,12,0.00
2013-1-23,51.9,37.9,30.9,33.6,23.8,14.6,90,58,41,30.48,30.24,9,1,9,0.00
2013-1-24,44.7,37.3,27.6,40.5,24.5,11.1,93,62,34,30.49,30.24,16,2,16,0.00
2013-1-25,35.4,33.1,29.4,34.3,27.2,13.5,96,80,47,30.47,30.22,7,0,7,0.23
2013-1-26,48.6,37.7,30.5,38.4,34.0,29.2,100,87,63,30.42,30.28,9,1,9,0.00
2013-1-27,49.6,40.8,30.6,40.2,34.7,28.8,94,80,66,30.54,30.40,7,1,7,0.00
2013-1-28,59.8,49.7,44.2,51.1,42.6,34.8,92,77,66,30.43,30.28,10,1,10,0.00
2013-1-29,57.8,50.8,43.0,55.8,49.3,41.7,96,94,90,30.30,29.90,3,0,3,0.00
2013-1-30,64.7,55.0,39.0,63.8,53.3,34.8,98,94,79,29.90,29.58,16,1,16,1.76
2013-1-31,48.2,39.4,34.1,35.4,29.2,26.0,86,67,43,30.19,29.89,12,1,12,0.00
2013-2-1,44.2,31.7,22.3,35.8,20.0,11.4,85,63,37,30.54,30.13,12,1,12,0.00
2013-2-2,36.6,29.4,21.7,33.2,25.8,18.4,95,86,72,30.50,30.20,6,0,6,0.05
2013-2-3,54.5,39.2,29.3,41.0,31.7,26.7,100,77,41,30.24,30.09,12,1,12,0.01
2013-2-4,49.4,36.9,26.3,35.4,30.3,24.3,93,78,51,30.26,30.05,5,0,5,0.00
2013-2-5,63.1,48.4,40.3,48.2,41.8,35.1,95,79,51,30.10,29.98,7,0,7,0.02
2013-2-6,64.1,46.4,33.3,47.8,38.4,32.3,97,77,40,30.28,30.10,6,0,6,0.00
2013-2-7,52.5,45.9,40.5,45.2,40.4,37.2,94,82,61,30.20,30.00,7,0,7,0.01
2013-2-8,57.2,46.3,38.4,49.0,41.5,31.5,96,84,59,30.34,29.97,15,1,15,0.05
2013-2-9,56.1,42.8,31.1,36.7,32.6,27.4,86,69,43,30.43,30.28,13,2,13,0.00
2013-2-10,56.9,47.9,39.9,50.7,41.3,33.5,96,80,42,30.32,30.05,13,1,13,0.72
2013-2-11,57.8,51.3,42.0,55.1,48.1,39.4,97,89,64,30.21,30.05,10,0,10,0.03
2013-2-12,54.1,45.1,34.7,41.9,38.0,32.8,97,78,51,30.25,29.90,14,1,14,0.08
2013-2-13,51.2,43.4,40.4,46.1,40.5,34.6,100,90,73,30.08,29.77,11,1,11,0.13
2013-2-14,58.2,44.8,33.4,42.7,37.0,30.9,92,75,50,30.17,30.05,8,1,8,0.00
2013-2-15,61.4,44.2,32.9,45.9,36.8,30.7,97,77,50,30.18,30.06,12,1,12,0.00
2013-2-16,42.4,34.4,26.3,31.3,23.8,15.4,86,66,39,30.27,30.11,13,1,13,0.00
2013-2-17,48.4,34.7,26.3,24.6,19.9,17.2,68,56,30,30.41,30.25,12,1,12,0.00
2013-2-18,62.1,46.6,35.6,38.5,29.9,23.5,61,53,39,30.38,30.03,11,0,11,0.00
2013-2-19,55.9,51.4,46.5,47.4,30.5,20.3,97,46,31,30.28,30.00,16,2,16,0.00
2013-2-20,49.4,44.3,37.8,23.6,20.4,11.2,53,38,33,30.36,30.22,10,2,10,0.00
2013-2-21,53.7,46.1,38.5,30.8,24.9,18.0,54,43,36,30.32,29.99,10,2,10,0.00
2013-2-22,50.8,50.8,50.8,30.2,30.2,30.2,45,45,45,30.13,30.05,3,3,3,0.00
2013-2-23,56.3,52.2,50.8,50.9,39.0,30.2,90,64,45,30.08,29.88,6,2,6,0.00
2013-2-24,58.9,54.5,42.6,49.5,41.1,33.6,88,64,40,30.15,29.98,10,1,10,0.01
2013-2-25,57.0,56.0,46.6,38.2,36.3,25.5,61,48,44,30.08,29.81,10,1,10,0.00
2013-2-26,55.7,53.2,48.1,46.2,39.4,30.8,93,61,51,29.82,29.55,11,0,11,0.00
2013-2-27,55.1,50.3,44.9,42.0,40.0,36.0,78,68,52,29.95,29.78,13,1,13,0.00
2013-2-28,51.9,51.9,51.9,37.6,37.6,37.6,58,58,58,30.07,29.90,1,1,1,0.00
2013-3-1,51.9,51.9,51.9,37.6,37.6,37.6,58,58,58,30.07,30.01,1,1,1,0.00
2013-3-2,51.9,43.4,36.2,37.6,33.2,22.8,77,68,58,30.18,30.01,9,2,9,0.00
2013-3-3,41.1,38.8,34.6,30.9,27.6,22.0,75,65,48,30.20,30.11,10,2,10,0.00
2013-3-4,54.4,46.2,38.8,34.3,28.0,23.3,69,49,37,30.29,30.01,6,0,6,0.00
2013-3-5,55.0,52.2,51.0,49.5,38.2,33.5,82,60,51,30.07,29.67,10,2,10,0.00
2013-3-6,54.9,48.4,38.6,49.5,41.2,29.5,82,76,64,30.31,29.97,11,4,11,0.00
2013-3-7,48.7,42.4,39.1,35.1,31.6,29.5,72,66,57,30.42,30.29,13,3,13,0.00
2013-3-8,56.7,45.7,35.0,33.9,31.6,25.6,84,60,31,30.44,30.31,9,2,14,0.00
2013-3-9,62.7,47.6,33.8,40.9,35.2,30.4,90,64,39,30.39,30.21,7,1,7,0.00
2013-3-10,72.3,58.6,45.4,44.7,40.3,37.1,80,53,33,30.21,30.01,10,1,10,0.00
2013-3-11,60.2,54.8,40.5,54.9,50.0,38.7,96,85,60,30.03,29.75,14,1,14,0.98
2013-3-12,60.0,45.6,38.6,40.2,35.6,32.5,95,70,40,30.19,29.97,12,1,12,0.00
2013-3-13,51.1,40.1,31.1,35.2,28.9,21.7,93,67,41,30.43,30.17,13,1,13,0.00
2013-3-14,52.7,38.8,26.5,36.8,25.1,20.3,86,61,31,30.51,30.33,7,1,11,0.01
2013-3-15,73.3,51.6,31.7,49.7,41.1,30.2,96,71,40,30.35,29.97,11,1,11,0.00
2013-3-16,79.3,63.6,51.1,56.0,49.1,44.5,80,61,38,29.98,29.83,13,1,13,0.00
2013-3-17,76.7,62.8,52.8,58.7,51.4,47.2,86,68,45,30.00,29.88,13,1,13,0.00
2013-3-18,59.7,55.5,52.5,57.2,53.5,48.9,97,93,85,29.93,29.77,7,0,7,0.87
2013-3-19,64.0,50.3,35.5,53.3,37.0,22.6,97,65,28,30.20,29.92,12,1,13,0.00
2013-3-20,60.1,46.5,36.1,33.8,28.2,23.3,78,51,26,30.23,29.98,16,1,16,0.00
2013-3-21,47.5,36.2,24.9,31.1,19.7,13.6,83,53,32,30.15,30.02,16,1,16,0.00
2013-3-22,46.7,38.9,30.5,36.2,26.0,20.4,76,60,47,30.17,30.06,7,1,7,0.00
2013-3-23,55.0,45.3,38.6,46.6,40.8,35.0,94,85,70,30.10,29.82,10,1,10,0.18
2013-3-24,58.7,49.3,42.2,54.5,46.0,32.8,97,89,65,29.88,29.46,14,1,14,1.17
2013-3-25,42.1,36.8,33.7,33.4,27.5,24.8,79,69,62,30.17,29.74,17,2,17,0.00
2013-3-26,41.3,36.1,32.6,31.8,28.9,27.0,88,75,63,30.41,30.16,13,1,13,0.00
2013-3-27,54.6,40.7,27.9,33.5,29.0,25.1,93,66,37,30.46,30.33,11,1,11,0.00
2013-3-28,62.7,44.5,28.5,38.2,32.2,25.7,93,66,36,30.46,30.31,14,1,14,0.00
2013-3-29,55.4,43.7,33.3,43.1,37.1,31.2,99,79,50,30.43,30.29,11,1,11,0.00
2013-3-30,64.8,51.2,43.3,53.1,46.4,41.5,96,85,55,30.30,30.04,6,1,7,0.30
2013-3-31,67.0,57.9,52.9,60.8,55.6,51.9,97,92,72,30.04,29.88,6,0,6,0.28
2013-4-1,70.2,55.0,40.6,54.7,46.2,39.3,100,75,43,30.12,29.93,10,1,11,0.00
2013-4-2,59.1,48.6,37.7,40.6,32.3,27.4,77,55,33,30.31,30.12,12,1,12,0.00
2013-4-3,58.7,50.3,40.4,35.0,30.4,25.6,70,47,33,30.31,30.20,16,2,16,0.00
2013-4-4,50.1,43.7,40.9,43.9,41.3,33.1,96,92,53,30.22,30.05,8,1,8,1.33
2013-4-5,69.0,52.5,42.3,50.2,43.5,39.7,100,75,37,30.15,30.03,11,1,12,0.07
2013-4-6,75.9,56.7,37.5,50.5,44.2,36.2,97,67,35,30.25,30.08,8,1,8,0.00
2013-4-7,77.5,60.6,46.2,56.3,48.4,42.3,90,67,37,30.21,30.05,9,1,9,0.00
2013-4-8,79.4,62.3,49.6,60.8,53.8,47.9,95,76,48,30.13,30.03,7,0,7,0.00
2013-4-9,83.7,66.4,50.3,65.2,56.9,48.9,97,74,48,30.21,30.04,9,1,9,0.00
2013-4-10,86.8,69.4,52.8,65.5,59.0,51.4,97,73,44,30.13,29.88,10,1,10,0.00
2013-4-11,82.2,68.2,60.0,66.6,61.5,57.0,96,80,56,29.91,29.52,16,1,16,0.98
2013-4-12,69.0,59.0,48.6,61.7,48.8,40.7,96,72,38,30.00,29.62,9,1,9,0.11
2013-4-13,75.2,58.2,41.7,50.8,44.9,40.0,96,66,30,30.12,30.00,10,1,10,0.00
2013-4-14,64.0,54.0,44.2,55.2,48.7,41.7,95,84,55,30.07,29.96,7,0,7,0.04
2013-4-15,78.5,64.5,54.8,63.4,58.0,53.4,97,81,54,30.12,29.96,7,1,8,0.00
2013-4-16,80.9,68.0,59.1,68.5,62.7,56.9,94,84,63,30.25,30.11,6,0,6,0.00
2013-4-17,87.3,68.3,60.6,72.7,63.7,59.5,97,87,52,30.22,30.06,18,1,18,0.28
2013-4-18,81.2,69.0,57.2,68.7,61.7,56.4,98,80,53,30.08,29.80,13,1,13,0.01
2013-4-19,72.2,57.9,43.3,65.6,51.8,35.9,96,81,61,30.19,29.67,12,1,12,1.11
2013-4-20,64.7,50.0,34.4,43.3,37.5,32.5,95,66,33,30.33,30.19,15,1,15,0.01
2013-4-21,70.2,54.4,39.9,48.7,41.1,35.4,88,63,33,30.43,30.26,9,1,9,0.00
2013-4-22,73.0,57.8,41.8,51.4,46.1,39.8,96,69,37,30.38,30.15,7,1,7,0.00
2013-4-23,76.3,60.9,46.2,56.0,49.6,43.1,95,69,42,30.26,30.05,9,1,9,0.00
2013-4-24,69.5,59.2,48.6,62.7,54.3,41.8,94,84,74,30.28,30.03,13,1,13,0.06
2013-4-25,69.0,53.8,39.1,46.9,40.5,33.9,92,64,31,30.40,30.27,12,1,12,0.00
2013-4-26,74.0,56.6,39.7,51.5,43.4,36.9,94,66,34,30.45,30.29,9,1,9,0.10
2013-4-27,56.1,53.4,51.6,54.9,52.2,50.4,97,96,94,30.41,30.15,7,1,7,1.04
2013-4-28,60.2,57.1,52.6,59.5,56.3,51.8,98,97,97,30.16,29.94,6,0,6,1.50
2013-4-29,74.5,63.0,56.1,62.9,58.0,54.1,98,85,56,30.07,29.95,7,1,7,0.00
2013-4-30,79.5,64.3,48.9,64.6,56.7,47.8,97,79,47,30.10,29.99,6,1,6,0.00
2013-5-1,77.7,66.3,54.1,65.6,59.6,52.9,97,81,56,30.20,30.09,5,0,5,0.00
2013-5-2,75.4,65.3,53.4,65.0,58.8,51.7,96,81,61,30.20,30.10,6,0,6,0.00
2013-5-3,73.8,62.9,56.1,61.8,57.8,54.6,96,84,58,30.14,29.97,9,1,9,0.00
2013-5-4,62.2,55.3,53.0,57.0,53.6,52.0,97,94,77,29.98,29.90,5,0,5,2.96
2013-5-5,65.4,52.6,47.2,57.3,50.4,46.0,97,92,64,29.93,29.78,10,1,10,1.49
2013-5-6,56.0,51.2,45.9,53.4,49.7,44.7,100,95,85,29.96,29.82,6,0,6,0.39
2013-5-7,73.2,59.3,45.0,60.6,53.0,43.9,100,82,56,30.02,29.92,7,1,7,0.00
2013-5-8,76.5,63.1,51.4,65.8,58.3,50.3,97,85,59,30.08,29.97,6,0,6,0.00
2013-5-9,83.8,67.8,54.2,68.1,60.4,53.1,97,80,48,30.13,30.02,7,0,7,0.00
2013-5-10,75.2,65.6,56.6,64.8,60.5,55.2,97,84,66,30.08,29.95,7,0,7,0.00
2013-5-11,75.8,67.0,56.2,67.8,61.7,51.6,96,83,67,30.03,29.90,9,1,9,0.02
2013-5-12,71.3,59.2,48.7,52.6,44.0,37.0,94,60,34,30.19,30.03,13,1,13,0.00
2013-5-13,73.9,56.6,39.0,47.6,41.6,36.2,93,61,31,30.30,30.17,10,1,10,0.00
2013-5-14,83.0,63.0,42.2,62.7,51.9,39.9,96,70,43,30.29,30.07,5,1,12,0.00
2013-5-15,88.7,70.7,57.2,68.9,60.8,55.6,96,74,42,30.17,30.03,9,1,9,0.00
2013-5-27,69.0,68.5,68.1,65.0,64.9,64.6,89,88,87,30.11,30.10,0,0,0,3.62
2013-5-28,87.6,73.4,61.8,70.5,64.8,60.4,97,77,49,30.19,30.08,7,1,7,0.00
2013-5-29,88.3,73.6,61.7,72.3,65.2,59.7,95,77,52,30.22,30.10,8,1,8,0.00
2013-5-30,84.3,73.8,63.6,73.9,67.1,61.8,96,81,62,30.23,30.09,9,1,9,0.00
2013-5-31,84.6,74.5,65.7,72.6,68.3,64.1,95,82,63,30.19,30.04,9,0,9,0.00
2013-6-1,86.5,75.3,69.4,75.8,70.4,66.0,96,85,64,30.07,29.95,9,1,9,0.34
2013-6-11,91.8,81.8,72.7,78.3,74.4,70.8,94,79,60,30.02,29.96,5,0,5,0.03
2013-6-12,93.0,79.1,69.9,82.1,74.8,68.7,98,88,65,30.07,29.95,5,0,5,0.01
2013-6-13,89.8,78.6,70.8,80.8,73.6,66.7,97,85,68,29.95,29.75,9,1,9,0.01
2013-6-14,86.1,74.2,60.3,68.5,63.6,58.0,94,71,44,30.04,29.89,12,1,12,0.00
2013-6-15,88.3,73.7,60.7,72.1,65.3,58.7,95,77,51,30.13,30.03,7,1,7,0.00
2013-6-16,89.8,74.3,64.3,75.2,68.9,62.8,97,85,58,30.14,29.99,5,0,7,0.27
2013-6-17,84.1,72.9,68.7,76.3,70.6,67.5,97,93,72,30.06,29.92,7,0,7,0.10
2013-6-18,81.4,72.2,67.1,77.3,70.2,65.5,98,93,80,29.96,29.87,11,1,11,0.04
2013-6-19,88.3,73.7,62.7,73.9,67.9,61.7,98,84,53,30.07,29.95,7,1,7,0.02
2013-6-20,88.8,75.4,65.1,74.4,69.1,63.9,97,82,56,30.20,30.07,6,1,6,0.02
2013-6-21,86.3,74.9,66.5,73.3,69.1,64.3,97,83,53,30.26,30.15,6,0,6,0.02
2013-6-22,89.3,76.2,66.4,73.3,68.7,65.2,97,80,50,30.23,30.08,6,1,6,0.01
2013-6-23,88.6,76.4,64.6,75.6,70.0,63.1,97,82,60,30.20,30.08,7,1,7,0.01
2013-6-24,90.0,77.4,67.7,76.8,71.9,66.5,97,84,60,30.22,30.07,6,1,6,0.01
2013-6-25,89.0,75.9,71.6,78.4,72.4,69.8,96,89,63,30.17,30.02,8,0,8,0.00
2013-6-26,90.7,75.9,70.3,78.6,72.6,69.4,98,90,65,30.07,30.00,6,0,6,0.00
2013-6-28,88.8,75.7,69.0,80.3,71.8,67.8,96,88,73,29.73,29.66,6,0,6,0.00
2013-6-29,89.1,76.8,68.3,76.9,69.3,65.0,98,80,49,29.73,29.65,6,0,6,0.00
2013-6-30,91.3,76.2,64.0,72.9,66.9,61.6,96,76,43,29.83,29.68,6,1,6,0.00
2013-7-1,80.3,70.7,63.6,74.1,68.2,62.4,97,92,77,29.93,29.78,5,0,5,0.01
2013-7-2,83.5,71.8,66.3,74.9,69.3,65.4,97,92,68,30.07,29.92,6,0,6,0.01
2013-7-3,73.5,70.2,67.6,71.9,69.0,66.4,97,96,91,30.17,30.06,6,0,6,0.00
2013-7-4,75.3,70.3,67.6,73.9,69.2,66.7,98,96,93,30.17,30.07,7,0,7,0.01
2013-7-5,73.6,71.2,68.9,72.4,70.2,68.0,98,97,94,30.19,30.10,5,0,9,0.01
2013-7-6,71.6,70.0,68.3,71.0,69.4,67.7,98,98,97,30.17,30.12,3,0,3,0.01
2013-7-7,80.9,72.3,68.2,77.9,71.3,67.6,98,97,84,30.18,30.11,5,0,5,0.01
2013-7-8,89.3,76.5,69.3,78.9,73.3,68.6,98,90,58,30.22,30.10,4,0,5,0.01
2013-7-9,88.2,78.0,72.5,80.3,75.2,71.6,98,92,75,30.18,30.06,7,0,7,0.01
2013-7-10,91.0,77.7,71.6,81.9,74.9,70.7,98,92,69,30.09,30.00,5,0,5,0.00
2013-7-15,90.3,79.2,73.5,76.5,74.6,72.0,97,87,58,30.29,30.20,10,0,10,0.00
2013-7-16,92.0,80.4,69.4,79.9,74.2,68.5,98,83,58,30.33,30.23,7,0,7,0.00
2013-7-17,95.3,81.2,70.7,80.1,74.7,69.1,98,82,55,30.29,30.14,9,1,9,0.01
2013-7-18,91.2,79.3,70.7,79.1,74.1,69.5,97,85,59,30.23,30.05,7,1,7,0.00
2013-7-19,93.5,81.2,72.5,80.1,74.9,70.7,97,83,55,30.12,29.96,7,0,7,0.00
2013-7-20,91.7,79.4,70.7,80.3,74.9,69.8,98,87,61,30.04,29.90,5,0,5,0.00
2013-7-21,89.8,78.4,72.2,80.6,74.1,71.0,96,87,65,30.03,29.96,11,1,11,0.01
2013-7-22,85.0,78.2,71.2,77.3,73.5,69.2,94,86,74,29.99,29.85,6,0,6,0.00
2013-7-23,83.0,75.6,70.4,77.8,72.9,68.9,96,91,81,29.95,29.82,6,0,6,0.01
2013-7-24,88.5,75.0,69.4,77.1,72.1,67.0,97,91,65,29.91,29.83,10,0,10,0.00
2013-7-25,88.0,75.0,63.2,74.6,68.9,62.3,98,83,56,30.05,29.90,7,1,7,0.00
2013-7-26,87.4,73.5,62.4,77.2,68.3,61.0,97,85,59,30.09,29.98,6,0,6,0.01
2013-7-27,85.3,74.6,68.2,75.4,70.3,66.7,96,87,60,30.00,29.88,5,0,6,0.00
2013-7-28,85.7,74.7,65.7,74.2,69.0,61.8,96,83,61,30.09,29.92,6,0,6,0.01
2013-7-29,83.5,69.5,58.7,67.9,62.5,56.8,94,80,53,30.21,30.08,7,1,7,0.00
2013-7-30,87.3,74.2,62.4,73.9,67.2,60.8,96,81,52,30.25,30.11,6,1,6,0.00
2013-7-31,76.5,71.3,68.3,74.0,69.8,66.7,97,95,90,30.15,29.97,5,0,5,0.00
2013-8-1,83.1,73.0,69.3,77.3,71.4,67.4,98,95,78,30.00,29.95,2,0,3,0.01
2013-8-2,87.8,74.9,64.1,74.0,68.6,62.9,97,83,53,30.06,29.97,6,0,7,0.00
2013-8-3,84.0,74.9,66.4,76.7,71.3,65.1,96,89,73,30.06,30.00,4,0,4,0.00
2013-8-4,89.8,77.7,68.5,77.4,71.1,64.6,97,81,59,30.09,30.00,10,1,10,0.02
2013-8-5,87.0,74.2,61.2,71.5,65.8,59.5,96,77,45,30.09,29.98,5,0,6,0.00
2013-8-6,84.1,75.8,70.3,77.6,72.0,68.5,96,88,72,30.01,29.95,3,0,5,0.00
2013-8-7,84.8,74.5,71.7,78.7,72.3,69.9,97,93,79,30.04,29.97,6,0,6,0.05
2013-8-8,86.7,76.0,71.9,79.7,73.4,70.9,97,92,76,30.05,29.97,7,1,9,0.12
2013-8-9,90.7,77.3,70.8,81.6,74.9,69.9,98,93,71,30.08,29.99,6,0,6,0.09
2013-8-10,90.1,76.4,72.3,81.9,74.3,71.4,98,93,69,30.13,30.06,7,0,7,0.00
2013-8-19,74.4,70.7,69.8,72.2,69.6,68.9,97,96,93,30.13,30.07,1,0,1,0.28
2013-8-20,84.7,75.2,68.5,76.9,72.4,67.8,98,92,73,30.18,30.09,7,0,7,0.00
2013-8-21,81.2,73.4,70.5,76.5,72.1,69.1,98,96,83,30.23,30.12,7,0,7,1.58
2013-8-22,87.2,74.7,70.6,79.1,73.0,69.6,98,95,71,30.19,30.06,8,0,8,0.40
2013-8-23,88.8,75.9,68.9,78.7,71.9,67.7,98,89,64,30.11,29.99,12,0,12,0.03
2013-8-24,86.1,74.5,66.0,76.8,70.5,65.1,98,88,67,30.25,30.07,7,1,7,0.00
2013-8-25,84.8,75.0,65.8,72.6,68.4,64.8,98,81,57,30.37,30.24,6,0,6,0.00
2013-8-26,85.6,73.4,63.4,71.5,67.0,62.1,97,82,56,30.33,30.16,6,0,6,0.00
2013-8-27,88.6,75.1,64.6,75.1,69.3,63.7,97,84,55,30.18,30.05,6,0,6,0.00
2013-8-28,91.3,77.6,67.6,79.4,72.9,66.6,98,86,59,30.09,30.00,6,0,6,0.00
2013-8-29,92.5,78.6,69.5,80.3,74.2,68.3,97,87,61,30.05,29.94,5,0,5,0.00
2013-8-30,88.7,77.3,71.0,80.3,74.6,70.1,98,92,72,30.01,29.92,6,0,6,0.01
2013-8-31,89.7,78.5,72.5,81.5,75.1,71.5,98,90,70,29.98,29.85,7,0,7,0.01
2013-9-3,87.1,78.6,69.0,76.6,70.7,66.2,91,78,60,30.02,29.90,6,0,6,0.58
2013-9-4,87.9,73.2,62.0,72.6,66.6,60.8,98,82,52,30.13,30.01,9,0,9,0.00
2013-9-5,86.2,71.6,60.6,72.8,65.4,59.5,97,83,56,30.18,30.11,8,1,8,0.00
2013-9-6,87.3,72.5,61.4,72.9,66.2,60.0,97,82,57,30.19,30.08,9,1,9,0.00
2013-9-7,88.0,74.2,62.9,75.1,68.9,61.8,97,85,62,30.14,30.01,6,0,6,0.00
2013-9-8,90.3,76.4,66.0,76.7,71.2,65.1,98,85,59,30.04,29.95,6,0,6,0.00
2013-9-9,89.8,77.1,70.3,78.2,72.9,69.1,97,88,63,30.11,30.00,6,0,6,0.00
2013-9-10,90.4,78.0,69.4,77.7,72.3,68.5,98,84,60,30.22,30.11,6,0,6,0.00
2013-9-11,90.5,77.4,68.4,76.5,71.2,67.4,97,83,54,30.25,30.10,6,0,6,0.00
2013-9-12,94.8,77.7,68.8,77.9,71.4,67.6,97,83,54,30.11,29.92,6,0,6,0.00
2013-9-13,86.0,73.2,60.8,70.0,63.0,53.9,96,73,45,30.00,29.89,12,1,12,0.00
2013-9-14,78.7,64.8,53.7,61.5,55.7,49.8,93,74,52,30.10,29.99,15,1,15,0.00
2013-9-15,83.6,67.9,55.2,69.9,61.7,53.5,95,82,57,30.19,30.09,6,0,10,0.00
2013-9-16,85.9,70.9,59.8,69.8,63.8,58.7,97,80,50,30.18,30.10,7,0,7,0.00
2013-9-17,82.8,72.8,64.8,70.3,65.2,61.4,90,78,62,30.23,30.13,9,1,9,0.00
2013-9-18,80.2,71.5,65.7,67.2,63.5,61.1,91,77,59,30.25,30.13,7,1,7,0.00
2013-9-19,83.2,71.7,61.2,70.1,65.4,59.8,97,82,58,30.22,30.06,7,0,7,0.00
2013-9-20,87.0,73.7,63.1,71.6,66.7,61.9,97,81,52,30.09,29.89,5,0,6,0.00
2013-9-21,73.0,67.4,58.5,69.2,66.0,57.2,97,95,87,29.89,29.77,4,0,7,1.85
2013-9-22,77.0,63.5,52.7,63.7,57.5,51.8,97,83,56,29.94,29.86,14,1,14,0.00
2013-9-23,81.8,66.1,55.5,66.7,60.1,53.8,95,82,57,30.04,29.93,7,1,7,0.00
2013-9-24,72.8,65.3,59.0,66.1,62.5,57.9,97,91,76,30.06,29.90,6,0,6,0.00
2013-9-25,68.3,66.6,65.4,67.2,65.4,64.2,97,96,91,29.91,29.85,3,0,3,0.44
2013-9-26,79.8,68.5,61.6,69.8,64.9,60.0,98,89,65,30.05,29.89,6,0,6,0.00
2013-9-27,80.4,66.8,56.8,68.7,61.2,55.9,98,84,54,30.17,30.04,6,0,6,0.00
2013-9-28,77.5,66.5,57.5,65.3,60.9,56.6,98,84,58,30.24,30.12,4,0,4,0.00
2013-9-29,77.3,65.5,56.6,63.8,60.1,55.4,97,84,55,30.18,30.04,3,0,7,0.00
2013-9-30,77.0,64.7,55.9,64.9,59.9,54.8,97,86,59,30.12,30.01,7,0,7,0.00
2013-10-1,79.8,66.9,57.5,69.6,62.7,56.4,98,88,64,30.19,30.06,6,0,6,0.00
2013-10-2,83.5,70.4,62.0,71.4,65.8,61.0,97,87,58,30.20,30.07,5,0,5,0.00
2013-10-3,84.8,72.7,64.4,72.6,67.2,62.6,97,84,56,30.14,30.05,9,0,9,0.00
2013-10-4,80.9,67.9,60.0,71.8,64.2,59.1,97,89,68,30.19,30.09,4,0,4,0.00
2013-10-6,82.7,75.0,61.1,72.7,69.1,56.7,91,82,68,29.97,29.82,9,1,9,0.07
2013-10-7,71.6,61.4,54.9,57.9,54.3,49.7,96,79,54,30.08,29.91,13,1,13,0.01
2013-10-8,74.3,62.2,53.6,59.9,53.4,47.6,90,74,54,30.16,30.07,17,2,17,0.00
2013-10-9,77.3,64.3,53.8,64.4,58.6,52.4,100,83,60,30.23,30.12,5,0,5,0.00
2013-10-10,81.5,65.8,54.8,66.2,59.4,53.7,97,82,54,30.19,30.06,8,0,8,0.00
2013-10-11,80.9,64.0,50.3,63.4,56.3,49.2,97,79,47,30.12,30.01,3,0,6,0.00
2013-10-12,82.1,64.9,52.1,65.5,57.9,50.7,97,80,47,30.14,30.04,5,0,5,0.00
2013-10-13,82.5,66.0,52.4,65.6,58.5,51.3,97,79,49,30.24,30.13,10,1,10,0.00
2013-10-14,82.7,67.8,56.6,67.3,61.8,55.3,97,83,58,30.25,30.10,8,1,8,0.00
2013-10-15,73.4,66.7,62.1,64.2,61.5,59.3,95,84,70,30.17,30.06,6,0,6,0.00
2013-10-16,72.3,64.8,61.1,64.5,61.3,58.6,96,89,74,30.09,29.96,5,0,5,0.01
2013-10-17,73.2,64.2,51.8,69.1,61.5,49.7,97,91,74,30.04,29.90,6,0,6,0.19
2013-10-18,68.0,55.5,46.5,54.0,50.0,45.4,97,84,54,30.11,30.00,9,1,9,0.00
2013-10-19,69.0,56.1,46.6,58.3,52.1,44.2,95,87,66,30.08,29.93,5,0,5,0.00
2013-10-20,65.0,50.0,38.2,49.4,43.3,36.8,96,80,48,30.16,30.07,9,1,9,0.00
2013-10-21,69.5,53.4,39.6,55.4,47.4,38.2,97,82,47,30.19,30.03,6,0,6,0.00
2013-10-22,68.5,58.4,50.0,57.4,53.5,48.0,96,85,63,30.05,29.89,6,0,6,0.00
2013-10-23,58.7,48.7,37.7,48.5,41.9,34.9,100,79,51,30.17,29.87,11,1,11,0.00
2013-10-24,60.9,47.5,37.2,46.7,40.8,34.7,93,79,55,30.34,30.14,7,0,7,0.00
2013-10-25,52.9,47.5,43.9,36.5,34.4,31.6,75,62,46,30.52,30.33,10,2,11,0.00
2013-10-26,60.8,53.5,41.7,41.7,36.6,23.5,88,53,44,30.40,30.16,8,2,8,0.00
2013-10-27,64.5,59.5,56.9,54.5,47.1,40.5,76,64,55,30.19,30.12,6,1,6,0.00
2013-10-28,61.9,61.9,61.9,53.9,53.9,53.9,75,75,75,30.31,30.14,0,0,0,0.00
2013-10-29,71.3,64.6,58.9,61.9,57.4,53.9,94,78,68,30.37,30.24,5,0,5,0.00
2013-10-30,78.8,70.6,59.0,64.4,61.9,53.4,97,75,55,30.31,30.13,7,0,7,0.00
2013-10-31,72.4,72.4,72.4,62.9,62.9,62.9,72,72,72,30.15,30.07,0,0,0,0.00
2013-11-1,72.4,70.4,60.6,62.9,58.4,52.0,97,66,54,29.86,29.72,11,1,11,0.00
2013-11-2,69.1,64.8,52.3,54.7,49.2,40.9,97,57,41,30.13,29.84,12,1,12,0.00
2013-11-3,61.1,55.4,39.1,45.9,43.0,36.8,92,64,49,30.34,30.12,9,1,9,0.00
2013-11-4,66.5,49.8,36.8,48.1,41.7,35.1,100,76,46,30.47,30.34,10,0,10,0.00
2013-11-5,64.4,53.2,43.4,50.5,44.7,40.9,93,75,48,30.50,30.34,4,0,4,0.00
2013-11-6,72.3,59.2,48.4,61.8,54.6,45.1,96,85,67,30.35,30.09,8,0,8,0.03
2013-11-7,62.0,51.6,37.0,59.7,45.7,33.0,96,81,50,30.35,30.05,14,1,14,0.43
2013-11-8,58.2,43.7,34.3,36.6,32.6,27.9,90,69,33,30.45,30.32,10,1,15,0.00
2013-11-9,57.0,44.5,31.6,43.3,36.9,29.5,96,76,51,30.41,30.28,5,0,5,0.00
2013-11-10,68.0,52.4,40.3,51.6,42.2,35.2,96,71,36,30.38,30.26,7,0,7,0.00
2013-11-11,64.5,48.4,33.9,43.0,36.7,30.6,92,67,36,30.38,30.21,7,0,7,0.00
2013-11-12,52.4,42.8,31.1,44.3,32.7,17.8,86,68,45,30.63,30.19,14,2,18,0.00
2013-11-13,45.9,34.5,26.9,25.6,22.0,18.4,84,61,40,30.74,30.55,15,2,15,0.00
2013-11-14,56.6,37.1,23.7,37.2,27.6,21.8,95,72,31,30.59,30.34,6,0,6,0.00
2013-11-15,47.4,40.7,31.9,42.8,38.2,29.2,96,91,75,30.35,30.21,4,0,4,0.33
2013-11-16,56.2,49.3,43.8,55.0,48.1,42.7,97,96,93,30.28,30.14,4,0,4,0.01
2013-11-17,65.0,60.4,56.0,64.3,59.5,54.9,98,97,93,30.15,29.88,6,0,6,0.42
2013-11-18,66.5,56.1,41.8,64.0,47.1,36.2,100,75,38,30.21,29.90,12,1,12,0.19
2013-11-19,55.1,45.7,39.6,37.0,33.0,28.8,84,62,41,30.29,30.17,16,2,16,0.03
2013-11-20,59.4,45.3,31.6,41.6,36.0,29.5,94,73,41,30.36,30.22,5,0,6,0.04
2013-11-21,62.2,54.3,46.2,52.9,47.4,40.2,87,78,67,30.41,30.29,4,0,4,0.03
2013-11-22,57.8,55.4,53.0,56.4,53.9,51.7,97,95,87,30.35,30.23,5,0,5,0.03
2013-11-23,53.2,46.7,33.8,51.8,40.1,22.8,95,79,55,30.47,30.24,14,2,14,0.02
2013-11-24,39.4,31.7,23.9,23.5,18.2,12.8,70,58,38,30.65,30.45,16,3,16,0.04
2013-11-26,42.4,38.7,35.6,41.6,37.8,34.6,100,96,96,30.08,29.83,8,1,8,1.77
2013-11-27,35.3,30.7,24.6,28.5,22.6,17.9,81,72,63,30.39,30.09,20,1,20,2.16
2013-11-28,43.8,34.0,21.7,29.9,26.6,19.5,91,76,50,30.56,30.46,7,1,7,0.09
2013-11-29,51.0,34.8,24.2,34.1,27.8,22.7,96,78,43,30.66,30.54,10,1,10,0.00
2013-11-30,53.9,38.4,27.4,40.8,31.4,25.9,96,78,44,30.61,30.36,7,0,7,0.01
2013-12-1,55.9,42.6,30.1,42.2,35.7,28.0,95,78,54,30.38,30.05,5,0,5,0.00
2013-12-2,48.5,46.9,44.6,47.7,45.2,41.5,97,94,81,30.05,29.86,4,0,4,0.07
2013-12-3,52.7,50.1,47.8,51.8,49.3,46.9,100,97,97,29.93,29.86,3,0,3,0.02
2013-12-4,69.2,58.2,51.8,64.6,56.4,51.0,98,94,82,30.01,29.89,3,0,4,0.00
2013-12-5,74.0,65.8,61.1,68.3,63.8,60.0,98,94,81,30.05,29.92,3,0,5,0.02
2013-12-6,65.6,51.7,38.9,64.7,50.7,37.9,97,96,94,30.25,29.89,9,1,9,0.55
2013-12-7,41.2,38.3,36.4,38.7,36.2,34.3,96,92,85,30.47,30.25,15,2,15,0.14
2013-12-24,25.2,25.2,25.2,19.3,19.3,19.3,78,78,78,30.50,30.50,0,0,1,0.00
2013-12-25,45.1,28.8,21.3,27.9,21.4,17.9,89,75,49,30.56,30.40,6,0,6,1.07